Home   Weather   Patna   Past weeks

Flag for India Past Weather in Patna, Bihar, India — Yesterday and Last 2 Weeks

Now
70 °F

Fog.


Feels Like: 70 °F
Forecast: 58 / 77 °F
Wind: 7 mph from Northeast

Location: Patna Airport

Current Time: Dec 4, 2016 at 11:48:56 am

Latest Report: Dec 4, 2016 at 11:30 am


Visibility: 1 mi

Pressure: 30.12 "Hg

Humidity: 78%

Dew Point: 63 °F

Location of PatnaLocation

Past Weather in Patna — Graph

°F

Patna Temperature Yesterday

Maximum temperature yesterday: 73 °F (at 1:30 pm)
Minimum temperature yesterday: 64 °F (at 5:30 am)
Average temperature yesterday: 69 °F

High & Low Weather Summary for the Past Weeks

 TemperatureHumidityPressure
High88 °F (Nov 19, 2:30 pm)100% (Nov 20, 5:30 am)30.15 "Hg (Nov 20, 5:30 am)
Low57 °F (Nov 23, 6:30 am)38% (Nov 19, 2:30 pm)29.62 "Hg (Nov 26, 3:00 pm)
Average71 °F77%29.91 "Hg
* Reported Nov 19 10:30 am — Dec 4 10:30 am, Patna, Weather by CustomWeather, © 2016

Note: Actual official high and low records may vary slightly from our data, if they occured in-between our weather recording intervals... More about our weather records

Advertising

Patna Weather History for the Previous 24 Hours

Scroll right to see more
 ConditionsComfort  
Time TempWeatherWind HumidityBarometerVisibility
10:30 am
Sun, Dec 4
66 °FFog.7 mph83%30.15 "Hg1 mi
10:00 am66 °FFog.9 mph83%30.15 "Hg1 mi
8:30 am64 °FFog.6 mph88%30.15 "Hg1 mi
8:00 am64 °FFog.6 mph94%30.12 "Hg1 mi
7:30 am64 °FFog.6 mph94%30.12 "Hg1 mi
7:00 am64 °FFog.7 mph94%30.09 "Hg1 mi
6:30 am64 °FFog.6 mph94%30.09 "Hg1 mi
5:30 am64 °FFog.6 mph94%30.09 "Hg0 mi
8:30 pm
Sat, Dec 3
66 °FFog.6 mph94%30.07 "Hg1 mi
8:00 pm66 °FFog.7 mph94%30.07 "Hg1 mi
7:30 pm68 °FFog.6 mph94%30.07 "Hg1 mi
7:00 pm68 °FHaze.7 mph94%30.04 "Hg1 mi
6:30 pm68 °FFog.3 mph94%30.04 "Hg1 mi
6:00 pm70 °FFog.3 mph88%30.01 "Hg1 mi
5:30 pm70 °FFog.5 mph88%30.01 "Hg1 mi
5:00 pm72 °FFog.5 mph88%30.01 "Hg1 mi
4:30 pm72 °FFog.5 mph88%29.98 "Hg1 mi
4:00 pm73 °FFog.6 mph83%29.98 "Hg1 mi
3:30 pm73 °FFog.7 mph83%29.98 "Hg1 mi
3:00 pm73 °FFog.6 mph83%29.98 "Hg1 mi
2:30 pm73 °FFog.7 mph83%29.98 "Hg1 mi
2:00 pm73 °FFog.6 mph83%30.01 "Hg1 mi
1:30 pm73 °FFog.6 mph83%30.01 "Hg1 mi
1:00 pm72 °FFog.7 mph88%30.04 "Hg1 mi
12:30 pm70 °FFog.7 mph88%30.07 "Hg1 mi
12:00 pm70 °FFog.5 mph88%30.07 "Hg1 mi
11:30 am70 °FMild.5 mph88%30.09 "Hg1 mi
11:00 am68 °FFog.5 mph94%30.09 "Hg1 mi
Weather by CustomWeather, © 2016

See weather overviewHow to use our weather pages